Louisville Bowman, KY

8:11 AM EST on December 08, 2019 (GMT -0500)
Bowman

Weather History for KLOU - October, 2019

Change the Weather History Date:

Saturday, October 19, 2019

  Actual Average Record
Temperature  
Mean Temperature 56 °F 57 °F  
Max Temperature 74 °F 68 °F 86 °F (1953)
Min Temperature 38 °F 47 °F 30 °F (1948)
Degree Days  
Heating Degree Days 9 8  
Month to date heating degree days 113 119  
Since 1 July heating degree days 113 155  
Cooling Degree Days 0 1  
Month to date cooling degree days 66 26  
Year to date cooling degree days 1790 1439  
Growing Degree Days 6 (Base 50)    
Moisture  
Dew Point 45 °F    
Average Humidity 67    
Maximum Humidity 92    
Minimum Humidity 41    
Precipitation  
Precipitation T in 0.12 in 0.63 in (1993)
Month to date precipitation 2.45 2.00  
Year to date precipitation 45.45 36.70  
Sea Level Pressure  
Sea Level Pressure 29.88 in    
Wind  
Wind Speed 4 mph (South)    
Max Wind Speed 15 mph    
Max Gust Speed 21 mph    
Visibility 10 miles    
Events Rain    
T = Trace of Precipitation, MM = Missing Value Source: NWS Daily Summary

Daily Weather History Graph

Daily Weather History Graph

Search for Another Location

Airport or City:

Astronomy

Oct. 19, 2019 Rise Set
Actual Time 7:55 AM EDT 6:59 PM EDT
Civil Twilight 7:28 AM EDT 7:26 PM EDT
Nautical Twilight 6:57 AM EDT 7:56 PM EDT
Astronomical Twilight 6:27 AM EDT 8:27 PM EDT
Moon 11:11 PM EDT (10/19) 1:23 PM EDT (10/19)
Length of Visible Light 11h 57m
Length of Day
11h 04m
Waning Gibbous, 70% of the Moon is Illuminated
Oct 19
Waning Gibbous
Oct 21
Last Quarter
Oct 27
New
Nov 4
First Quarter
Nov 12
Full

Hourly Weather History & Observations

Time (EDT) Temp. Dew Point Humidity Pressure Visibility Wind Dir Wind Speed Gust Speed Precip Events Conditions
12:53 AM 45.0 °F 39.0 °F 80% 29.95 in 10.0 mi Calm Calm - N/A   Clear
1:53 AM 43.0 °F 39.0 °F 86% 29.95 in 10.0 mi Calm Calm - N/A   Clear
2:53 AM 43.0 °F 39.0 °F 86% 29.94 in 10.0 mi Calm Calm - N/A   Clear
3:53 AM 46.9 °F 37.0 °F 68% 29.95 in 10.0 mi Calm Calm - N/A   Clear
4:53 AM 39.0 °F 37.0 °F 93% 29.95 in 10.0 mi Calm Calm - N/A   Clear
5:53 AM 39.9 °F 37.0 °F 89% 29.96 in 10.0 mi Calm Calm - N/A   Clear
6:53 AM 41.0 °F 37.0 °F 86% 29.96 in 10.0 mi Calm Calm - N/A   Clear
7:53 AM 39.0 °F 36.0 °F 89% 29.96 in 10.0 mi Calm Calm - N/A   Clear
8:53 AM 44.1 °F 39.9 °F 85% 29.96 in 10.0 mi Calm Calm - N/A   Clear
9:53 AM 51.1 °F 41.0 °F 68% 29.96 in 10.0 mi Calm Calm - N/A   Clear
10:53 AM 57.9 °F 43.0 °F 58% 29.95 in 10.0 mi SSE 5.8 mph - N/A   Clear
11:53 AM 62.1 °F 43.0 °F 50% 29.94 in 10.0 mi SSE 3.5 mph - N/A   Clear
12:53 PM 66.9 °F 44.1 °F 44% 29.91 in 10.0 mi South 5.8 mph - N/A   Clear
1:53 PM 70.0 °F 46.9 °F 44% 29.88 in 10.0 mi SSW 4.6 mph - N/A   Clear
2:53 PM 73.0 °F 48.0 °F 41% 29.84 in 10.0 mi SW 10.4 mph - N/A   Clear
3:53 PM 73.0 °F 48.0 °F 41% 29.81 in 10.0 mi South 9.2 mph - N/A   Clear
4:53 PM 72.0 °F 48.0 °F 43% 29.80 in 10.0 mi South 9.2 mph - N/A   Clear
5:53 PM 72.0 °F 48.9 °F 44% 29.79 in 10.0 mi SE 5.8 mph - N/A   Clear
6:53 PM 69.1 °F 50.0 °F 51% 29.79 in 10.0 mi South 3.5 mph - N/A   Partly Cloudy
7:53 PM 68.0 °F 50.0 °F 52% 29.78 in 10.0 mi SE 4.6 mph - N/A   Clear
8:53 PM 66.0 °F 50.0 °F 56% 29.79 in 10.0 mi South 4.6 mph - 0.00 in   Partly Cloudy
9:53 PM 66.9 °F 51.1 °F 57% 29.80 in 10.0 mi South 4.6 mph - N/A   Overcast
10:53 PM 66.9 °F 52.0 °F 59% 29.81 in 10.0 mi South 11.5 mph 21.9 mph N/A   Overcast
11:19 PM 66.0 °F 53.1 °F 63% 29.82 in 10.0 mi South 8.1 mph - N/A   Overcast
11:53 PM 64.0 °F 55.0 °F 73% 29.81 in 10.0 mi SSW 11.5 mph - 0.00 in Rain Light Rain